Location: Sebastopol
(38.4021°N, 122.8239°W)
Time: 15:42:02
(UTC+00:00)

ALOS - Pass Details

Date: 29 October 2020
Orbit: 684 x 684 km, 97.9° (Epoch: 01 December)

Event Time Altitude Azimuth Distance (km) Brightness Sun altitude
Rises 13:58:19 0° 354° (N) 3,055 5.4 -7.8°
Reaches altitude 10° 14:01:14 10° 335° (NNW) 2,135 4.5 -7.3°
Maximum altitude 14:04:14 17° 294° (WNW) 1,693 3.7 -6.7°
Drops below altitude 10° 14:07:14 10° 254° (WSW) 2,126 4.3 -6.1°
Sets 14:10:08 0° 235° (SW) 3,037 5.2 -5.6°
